Location: McFarlands Corners
(41.4117°N, 81.3382°W)
Time: 02:32:35
(UTC+00:00)

Transit 4A - Pass Details

Date: 17 February 2026
Orbit: 863 x 978 km, 66.8° (Epoch: 13 March)

Event Time Altitude Azimuth Distance (km) Brightness Sun altitude
Rises 16:10:08 0° 338° (NNW) 3,591 10.4 32.9°
Reaches altitude 10° 16:13:41 10° 359° (N) 2,667 9.9 33.2°
Maximum altitude 16:17:37 17° 38° (NE) 2,215 9.8 33.5°
Drops below altitude 10° 16:21:36 10° 78° (ENE) 2,703 10.5 33.8°
Sets 16:25:12 0° 98° (E) 3,660 11.4 34.1°
